Regional Weather Roundup
Issued by NWS Northern Indiana

Home | Current Version | Previous Version | Graphics & Text | Print | Product List | Glossary On
Versions: 1 2 3 4 5 6 7 8 9 10 11 12 13 14 15 16 17 18 19 20 21 22 23 24 25 26 27 28 29 30 31 32 33 34 35 36 37 38 39 40 41 42 43 44 45 46 47 48 49 50
000
ASUS43 KIWX 200610
RWRIWX

KIWX WEATHER ROUNDUP
NATIONAL WEATHER SERVICE NORTHERN INDIANA
200 AM EDT WED AUG 20 2014

NOTE: "FAIR" INDICATES FEW OR NO CLOUDS BELOW 12,000 FEET WITH NO
SIGNIFICANT WEATHER AND/OR OBSTRUCTIONS TO VISIBILITY.

* THESE STATIONS ARE NOT UNDER NWS QUALITY CONTROL. THEY ALSO MAY NOT
  REPORT WEATHER SUCH AS PRECIPITATION OR FOG.

INZ001>027-200700-
NORTHERN INDIANA

CITY           SKY/WX    TMP DP  RH WIND       PRES   REMARKS
GARY*          FAIR      72  68  88 SW5       29.79S
VALPARAISO     FAIR      67  65  93 SW6       29.80S
6HR MIN TEMP:  67; 6HR MAX TEMP:  78;

MICHIGAN CITY* FAIR      66  66 100 SW3       29.78F
LAPORTE*       FAIR      66  66 100 W8        29.79F
6HR MIN TEMP:  64; 6HR MAX TEMP:  76;

KNOX*          FAIR      66  64  91 SW5       29.78F
6HR MIN TEMP:  41; 6HR MAX TEMP:  86;

SOUTH BEND     FAIR      70  65  84 SW8       29.78S
6HR MIN TEMP:  70; 6HR MAX TEMP:  77;

GOSHEN         FAIR      68  65  90 CALM      29.78F
6HR MIN TEMP:  68; 6HR MAX TEMP:  76;

MONTICELLO*    FAIR      65  64  97 S6        29.80S
6HR MIN TEMP:  64; 6HR MAX TEMP:  75; 6HR PCP:  0.57;

LOGANSPORT*    FAIR      64  61  88 SW7       29.82S
ROCHESTER*     FAIR      68  64  88 SW5       29.80S
WARSAW*        FAIR      68  64  88 SW5       29.79S
ANGOLA*        CLEAR     66  57  72 CALM      29.78F
FORT WAYNE     CLOUDY    68  66  93 S5        29.81R
6HR MIN TEMP:  68; 6HR MAX TEMP:  71; 6HR PCP:  0.03;

HUNTINGTON*    FAIR      67  66  94 SW3       29.80S
6HR MIN TEMP:  67; 6HR MAX TEMP:  73; 6HR PCP:  0.05;

PERU/GRISSOM   FAIR      66  66 100 SW10      29.80F
6HR MIN TEMP:  66; 6HR MAX TEMP:  75; 6HR PCP:  0.21;

MARION*        FAIR      65  63  91 SW6       29.82S
6HR MIN TEMP:  40; 6HR MAX TEMP:  87;


$$
INZ028>050-200700-
CENTRAL INDIANA

CITY           SKY/WX    TMP DP  RH WIND       PRES   REMARKS
LAFAYETTE      FAIR      65  65 100 CALM      29.82R
6HR MIN TEMP:  64; 6HR MAX TEMP:  75; 6HR PCP: TRACE;

KOKOMO*        FAIR      66  63  88 SW7       29.82S
6HR MIN TEMP:  66; 6HR MAX TEMP:  75; 6HR PCP:  0.01;

MUNCIE*        FAIR      70  64  81 SW7       29.83R
6HR MIN TEMP:  70; 6HR MAX TEMP:  75; 6HR PCP:  0.01;

INDIANAPOLIS   CLOUDY    67  63  87 SW7       29.84R
6HR MIN TEMP:  65; 6HR MAX TEMP:  80; 6HR PCP:  0.50;


$$
MIZ043>046-050>051-056>058-064>065-071>073-077>080-200700-
SOUTHWEST LOWER MICHIGAN

CITY           SKY/WX    TMP DP  RH WIND       PRES   REMARKS
BATTLE CREEK   MOCLDY    69  66  90 S3        29.78F
6HR MIN TEMP:  69; 6HR MAX TEMP:  71;

BENTON HARBOR  FAIR      68  65  90 W3        29.76S
6HR MIN TEMP:  67; 6HR MAX TEMP:  76; 6HR PCP: TRACE;

COLDWATER*     FAIR      67  66  96 CALM      29.78F FOG
6HR MIN TEMP:  67; 6HR MAX TEMP:  72;

HILLSDALE*     FAIR      66  66 100 CALM      29.79F
6HR MIN TEMP:  66; 6HR MAX TEMP:  69;

HOLLAND        FAIR      68  66  93 S3        29.76F
6HR MIN TEMP:  68; 6HR MAX TEMP:  73; 6HR PCP:  0.03;

GRAND RAPIDS   FOG       68  68 100 CALM      29.76F VSB 1/4
6HR MIN TEMP:  69; 6HR MAX TEMP:  73;

KALAMAZOO      CLOUDY    70  66  87 SW5       29.77F
6HR MIN TEMP:  69; 6HR MAX TEMP:  72;

STURGIS*       FAIR      66  66 100 SW3       29.77S
THREE RIVERS*  MOCLDY    69  67  94 CALM      29.77F FOG
6HR MIN TEMP:  69; 6HR MAX TEMP:  74;


$$
OHZ001>008-015>018-024>025-200700-
NORTHWEST OHIO

CITY           SKY/WX    TMP DP  RH WIND       PRES   REMARKS
WAUSEON*       FAIR      64  64 100 CALM      29.79F FOG
DEFIANCE       FAIR      69  65  86 CALM      29.78F
6HR MIN TEMP:  66; 6HR MAX TEMP:  70; 6HR PCP:  0.03;

FINDLAY        MOCLDY    69  66  90 SW17G29   29.84R THUNDER
6HR MIN TEMP:  68; 6HR MAX TEMP:  73; 6HR PCP:  0.39;

TOLEDO EXPRESS FAIR      67  66  97 CALM      29.79S
6HR MIN TEMP:  66; 6HR MAX TEMP:  69; 6HR PCP:  0.08;

TOLEDO METCALF FAIR      68  62  81 CALM      29.80F
6HR MIN TEMP:  67; 6HR MAX TEMP:  71; 6HR PCP:  0.01;

LIMA             N/A     70  66  87 MISG      29.82S THUNDER
6HR MIN TEMP:  68; 6HR MAX TEMP:  76; 6HR PCP:  0.12;


$$
&&



USA.gov is the U.S. government's official web portal to all federal, state and local government web resources and services.